This is the latest recevied weather packets stored in our database for station/object EA7RX-3. If no packets are shown the sender has not sent any weather packets the latest 10 day(s).
| Time | Temp. | Humidity | Pressure | Rain* | Wind** | Luminosity | Snow |
|---|---|---|---|---|---|---|---|
| 1777670301 | 20.56° C | 77% | 1015 hPa | - | - | - | - |
| 1777669701 | 20.56° C | 74% | 1014.9 hPa | - | - | - | - |
| 1777669100 | 21.11° C | 67% | 1014.8 hPa | - | - | - | - |
| 1777668501 | 20.56° C | 66% | 1014.8 hPa | - | - | - | - |
| 1777667900 | 21.11° C | 64% | 1014.5 hPa | - | - | - | - |
| 1777667300 | 21.67° C | 64% | 1014.6 hPa | - | - | - | - |
| 1777666700 | 21.67° C | 64% | 1014.5 hPa | - | - | - | - |
| 1777666101 | 21.67° C | 63% | 1014.4 hPa | - | - | - | - |
| 1777665500 | 21.67° C | 61% | 1014.3 hPa | - | - | - | - |
| 1777664901 | 22.22° C | 58% | 1014.1 hPa | - | - | - | - |
| 1777664300 | 22.22° C | 58% | 1014 hPa | - | - | - | - |
| 1777663701 | 22.78° C | 56% | 1013.8 hPa | - | - | - | - |
| 1777663100 | 22.78° C | 54% | 1013.6 hPa | - | - | - | - |
| 1777662501 | 23.33° C | 53% | 1013.6 hPa | - | - | - | - |
| 1777661900 | 23.33° C | 52% | 1013.6 hPa | - | - | - | - |
| 1777661300 | 24.44° C | 47% | 1013.3 hPa | - | - | - | - |
| 1777660700 | 25.56° C | 44% | 1012.8 hPa | - | - | - | - |
| 1777660100 | 26.11° C | 42% | 1012.8 hPa | - | - | - | - |
| 1777659500 | 28.33° C | 38% | 1012.2 hPa | - | - | - | - |
| 1777658900 | 28.89° C | 35% | 1012 hPa | - | - | - | - |
| 1777658302 | 28.33° C | 38% | 1012.1 hPa | - | - | - | - |
| 1777657700 | 30.56° C | 34% | 1011.8 hPa | - | - | - | - |
| 1777657101 | 31.67° C | 35% | 1011.5 hPa | - | - | - | - |
| 1777656500 | 26.11° C | 43% | 1012.8 hPa | - | - | - | - |
| 1777655900 | 26.11° C | 44% | 1012.7 hPa | - | - | - | - |
* Rain since midnight (hover to see other rain measurements)
** Current wind speed in m/s (hover to see current wind gust speed)